FLI415 EGPH-EKVG

Flight info

Callsign FLI415
Flight time N/A
Altitude 37000
Route GRICE P600 GLESK DCT SMOKI DCT NALAN/M061F240 DCT SUDUR
Aircraft A320/M-SDE3FGHIRWY/LB1

Departure

Time 2026-05-06 12:59
Airport Edinburgh Airport (EGPH)

Arrival

Time N/A
Airport Vágar Airport (EKVG)
Time Latitude Longitude Altitude Speed Heading
2026-05-06 12:33 55.94833 -3.35810 107 ft 0 kts 208°
2026-05-06 12:46 55.94836 -3.35807 107 ft 2 kts 208°
2026-05-06 12:46 55.94852 -3.35791 105 ft 3 kts 212°
2026-05-06 12:47 55.94869 -3.35771 104 ft 3 kts 220°
2026-05-06 12:47 55.94883 -3.35746 106 ft 3 kts 240°
2026-05-06 12:47 55.94889 -3.35718 107 ft 2 kts 288°
2026-05-06 12:47 55.94887 -3.35710 106 ft 0 kts 298°
2026-05-06 12:53 55.94914 -3.35795 105 ft 16 kts 300°
2026-05-06 12:54 55.95003 -3.35845 106 ft 15 kts 28°
2026-05-06 12:54 55.95061 -3.35897 107 ft 8 kts 291°
2026-05-06 12:54 55.95103 -3.36037 106 ft 19 kts 289°
2026-05-06 12:54 55.95142 -3.36291 106 ft 9 kts 259°
2026-05-06 12:55 55.95121 -3.36319 107 ft 6 kts 218°
2026-05-06 12:55 55.95080 -3.36449 107 ft 16 kts 238°
2026-05-06 12:55 55.95023 -3.36612 107 ft 15 kts 238°
2026-05-06 12:55 55.94970 -3.36760 107 ft 14 kts 237°
2026-05-06 12:56 55.94924 -3.36898 107 ft 12 kts 241°
2026-05-06 12:56 55.94882 -3.37026 107 ft 11 kts 238°
2026-05-06 12:56 55.94840 -3.37150 107 ft 14 kts 239°
2026-05-06 12:56 55.94773 -3.37351 106 ft 24 kts 239°
2026-05-06 12:57 55.94670 -3.37653 107 ft 30 kts 238°
2026-05-06 12:57 55.94558 -3.37982 106 ft 32 kts 239°
2026-05-06 12:57 55.94442 -3.38328 107 ft 33 kts 238°
2026-05-06 12:57 55.94319 -3.38686 107 ft 34 kts 238°
2026-05-06 12:58 55.94291 -3.38867 107 ft 3 kts 334°
2026-05-06 12:58 55.94310 -3.38887 106 ft 7 kts 329°
2026-05-06 12:58 55.94404 -3.38980 108 ft 14 kts 350°
2026-05-06 12:58 55.94450 -3.38870 109 ft 13 kts 63°
2026-05-06 12:59 55.94597 -3.38437 107 ft 77 kts 59°
2026-05-06 12:59 55.94981 -3.37304 107 ft 135 kts 58°
2026-05-06 12:59 55.95516 -3.35750 587 ft 146 kts 59°
2026-05-06 12:59 55.96038 -3.34204 1357 ft 145 kts 62°
2026-05-06 13:00 55.96567 -3.32658 2049 ft 149 kts 53°
2026-05-06 13:00 55.97363 -3.31290 2455 ft 170 kts 42°
2026-05-06 13:00 55.98342 -3.29874 2803 ft 192 kts 40°
2026-05-06 13:00 55.99448 -3.28297 3120 ft 215 kts 38°
2026-05-06 13:01 56.00868 -3.27161 3510 ft 238 kts 11°
2026-05-06 13:01 56.02595 -3.27187 3987 ft 260 kts 346°
2026-05-06 13:01 56.04221 -3.28638 4838 ft 266 kts 317°
2026-05-06 13:01 56.05309 -3.31299 5668 ft 268 kts 293°
2026-05-06 13:02 56.06026 -3.34353 5940 ft 265 kts 292°
2026-05-06 13:02 56.06760 -3.37368 6002 ft 263 kts 293°
2026-05-06 13:02 56.07493 -3.40321 6006 ft 263 kts 293°
2026-05-06 13:02 56.08245 -3.43341 6007 ft 262 kts 293°
2026-05-06 13:03 56.08886 -3.46352 6004 ft 262 kts 284°
2026-05-06 13:03 56.09349 -3.49503 6006 ft 262 kts 284°
2026-05-06 13:03 56.09813 -3.52662 6000 ft 262 kts 285°
2026-05-06 13:03 56.10543 -3.55639 5994 ft 263 kts 300°
2026-05-06 13:04 56.11462 -3.58423 5997 ft 263 kts 300°
2026-05-06 13:04 56.12394 -3.61239 5995 ft 263 kts 299°
2026-05-06 13:04 56.13451 -3.63906 5997 ft 264 kts 313°
2026-05-06 13:04 56.14897 -3.65944 5992 ft 266 kts 329°
2026-05-06 13:05 56.16618 -3.67151 5992 ft 268 kts 345°
2026-05-06 13:05 56.18471 -3.67558 5989 ft 269 kts 360°
2026-05-06 13:05 56.20325 -3.67030 6020 ft 274 kts 17°
2026-05-06 13:05 56.22046 -3.65456 6822 ft 279 kts 34°
2026-05-06 13:06 56.23626 -3.63431 7822 ft 280 kts 34°
2026-05-06 13:06 56.25221 -3.61394 8769 ft 283 kts 34°
2026-05-06 13:06 56.26842 -3.59319 9667 ft 288 kts 34°
2026-05-06 13:06 56.28496 -3.57202 10345 ft 301 kts 34°
2026-05-06 13:07 56.30265 -3.54932 10685 ft 323 kts 34°
2026-05-06 13:07 56.32122 -3.52553 11357 ft 332 kts 34°
2026-05-06 13:07 56.34019 -3.50116 12147 ft 337 kts 34°
2026-05-06 13:07 56.35933 -3.47646 12920 ft 342 kts 33°
2026-05-06 13:08 56.37883 -3.45129 13714 ft 347 kts 33°
2026-05-06 13:08 56.39855 -3.42579 14399 ft 351 kts 33°
2026-05-06 13:08 56.41847 -3.39990 15082 ft 355 kts 33°
2026-05-06 13:08 56.43838 -3.37399 15751 ft 359 kts 33°
2026-05-06 13:09 56.45855 -3.34800 16419 ft 363 kts 32°
2026-05-06 13:09 56.47944 -3.32191 17098 ft 367 kts 31°
2026-05-06 13:09 56.50058 -3.29604 17769 ft 370 kts 31°
2026-05-06 13:09 56.52212 -3.26980 18419 ft 374 kts 31°
2026-05-06 13:10 56.54383 -3.24325 18990 ft 378 kts 31°
2026-05-06 13:10 56.56569 -3.21634 19568 ft 381 kts 31°
2026-05-06 13:10 56.58770 -3.18903 20145 ft 385 kts 31°
2026-05-06 13:10 56.60985 -3.16140 20711 ft 388 kts 31°
2026-05-06 13:11 56.63219 -3.13349 21270 ft 391 kts 31°
2026-05-06 13:11 56.65467 -3.10531 21817 ft 395 kts 31°
2026-05-06 13:11 56.67735 -3.07685 22349 ft 398 kts 31°
2026-05-06 13:11 56.69923 -3.04939 22847 ft 401 kts 31°
2026-05-06 13:12 56.72232 -3.02042 23386 ft 404 kts 31°
2026-05-06 13:12 56.74562 -2.99121 23838 ft 408 kts 31°
2026-05-06 13:12 56.76905 -2.96183 24280 ft 410 kts 31°
2026-05-06 13:12 56.79258 -2.93227 24722 ft 412 kts 31°
2026-05-06 13:13 56.81621 -2.90247 25154 ft 415 kts 31°
2026-05-06 13:13 56.83999 -2.87231 25595 ft 417 kts 31°
2026-05-06 13:13 56.86385 -2.84206 26026 ft 419 kts 30°
2026-05-06 13:13 56.88896 -2.81544 26446 ft 416 kts 21°
2026-05-06 13:14 56.91584 -2.79674 26863 ft 413 kts 11°
2026-05-06 13:14 56.94385 -2.78620 27275 ft 410 kts
2026-05-06 13:14 56.97225 -2.78005 27686 ft 412 kts
2026-05-06 13:14 57.00070 -2.77388 28111 ft 414 kts
2026-05-06 13:15 57.02944 -2.76759 28518 ft 416 kts
2026-05-06 13:15 57.05830 -2.76124 28916 ft 418 kts
2026-05-06 13:15 57.08728 -2.75485 29316 ft 420 kts
2026-05-06 13:15 57.11641 -2.74834 29718 ft 422 kts
2026-05-06 13:16 57.13571 -2.74398 29967 ft 424 kts
2026-05-06 13:16 57.16505 -2.73735 30308 ft 426 kts
2026-05-06 13:16 57.19457 -2.73074 30609 ft 429 kts
2026-05-06 13:16 57.23382 -2.72199 30965 ft 432 kts
2026-05-06 13:17 57.26389 -2.71527 31233 ft 435 kts
2026-05-06 13:17 57.29396 -2.70852 31498 ft 437 kts
2026-05-06 13:17 57.31438 -2.70392 31703 ft 438 kts
2026-05-06 13:17 57.34455 -2.69712 32090 ft 438 kts
2026-05-06 13:18 57.37482 -2.69033 32462 ft 438 kts
2026-05-06 13:18 57.40460 -2.68364 32827 ft 438 kts
2026-05-06 13:18 57.43539 -2.67669 33195 ft 438 kts
2026-05-06 13:18 57.46280 -2.67049 33523 ft 438 kts
2026-05-06 13:19 57.49184 -2.66391 33884 ft 439 kts
2026-05-06 13:19 57.52186 -2.65712 34211 ft 439 kts
2026-05-06 13:19 57.55221 -2.65028 34491 ft 440 kts
2026-05-06 13:19 57.58256 -2.64341 34760 ft 440 kts
2026-05-06 13:20 57.61304 -2.63649 35028 ft 441 kts
2026-05-06 13:20 57.64310 -2.62962 35284 ft 442 kts
2026-05-06 13:20 57.67364 -2.62259 35528 ft 443 kts
2026-05-06 13:20 57.70421 -2.61551 35767 ft 443 kts
2026-05-06 13:21 57.73483 -2.60944 36003 ft 441 kts 356°
2026-05-06 13:21 57.76526 -2.61139 36234 ft 434 kts 347°
2026-05-06 13:21 57.79469 -2.62251 36451 ft 429 kts 338°
2026-05-06 13:21 57.82240 -2.64199 36655 ft 424 kts 329°
2026-05-06 13:22 57.84867 -2.66684 36870 ft 423 kts 328°
2026-05-06 13:22 57.87496 -2.69195 37036 ft 425 kts 328°
2026-05-06 13:22 57.90126 -2.71706 37070 ft 423 kts 328°
2026-05-06 13:23 57.95363 -2.76701 37069 ft 422 kts 328°
2026-05-06 13:23 58.00590 -2.81709 37070 ft 421 kts 328°
2026-05-06 13:24 58.05809 -2.86736 37069 ft 421 kts 328°
2026-05-06 13:24 58.10985 -2.91747 37068 ft 421 kts 328°
2026-05-06 13:25 58.16203 -2.96799 37069 ft 421 kts 328°
2026-05-06 13:25 58.21410 -3.01857 37071 ft 421 kts 328°
2026-05-06 13:26 58.26621 -3.06939 37071 ft 421 kts 328°
2026-05-06 13:26 58.31822 -3.12032 37071 ft 421 kts 328°
2026-05-06 13:27 58.36988 -3.17098 37072 ft 421 kts 328°
2026-05-06 13:27 58.42188 -3.22216 37076 ft 421 kts 328°
2026-05-06 13:28 58.47382 -3.27346 37077 ft 421 kts 327°
2026-05-06 13:28 58.52584 -3.32508 37075 ft 420 kts 327°
2026-05-06 13:29 58.57772 -3.37677 37080 ft 420 kts 327°
2026-05-06 13:29 58.62922 -3.42821 37081 ft 420 kts 327°
2026-05-06 13:30 58.68101 -3.48009 37084 ft 420 kts 327°
2026-05-06 13:30 58.73287 -3.53225 37083 ft 420 kts 327°
2026-05-06 13:31 58.78460 -3.58435 37081 ft 420 kts 327°
2026-05-06 13:31 58.83635 -3.63667 37083 ft 419 kts 327°
2026-05-06 13:32 58.88799 -3.68924 37079 ft 419 kts 327°
2026-05-06 13:32 58.93915 -3.74132 37078 ft 419 kts 327°
2026-05-06 13:33 58.99078 -3.79396 37080 ft 419 kts 327°
2026-05-06 13:33 59.04229 -3.84685 37084 ft 419 kts 327°
2026-05-06 13:34 59.09390 -3.90005 37089 ft 419 kts 327°
2026-05-06 13:34 59.14498 -3.95284 37074 ft 420 kts 327°
2026-05-06 13:35 59.19661 -4.00640 37080 ft 419 kts 327°
2026-05-06 13:35 59.24811 -4.05988 37082 ft 419 kts 327°
2026-05-06 13:36 59.29960 -4.11355 37080 ft 419 kts 327°
2026-05-06 13:36 59.35102 -4.16732 37082 ft 419 kts 327°
2026-05-06 13:37 59.40241 -4.22140 37077 ft 419 kts 327°
2026-05-06 13:37 59.45380 -4.27562 37079 ft 419 kts 327°
2026-05-06 13:38 59.50506 -4.32980 37080 ft 419 kts 327°
2026-05-06 13:38 59.55638 -4.38433 37074 ft 418 kts 327°
2026-05-06 13:39 59.60712 -4.43843 37071 ft 419 kts 327°
2026-05-06 13:39 59.65828 -4.49308 37068 ft 419 kts 327°
2026-05-06 13:40 59.70955 -4.54809 37064 ft 419 kts 327°
2026-05-06 13:40 59.76072 -4.60318 37067 ft 419 kts 327°
2026-05-06 13:41 59.81201 -4.65866 37071 ft 420 kts 327°
2026-05-06 13:41 59.86328 -4.71431 37064 ft 420 kts 327°
2026-05-06 13:42 59.91460 -4.77001 37060 ft 420 kts 327°
2026-05-06 13:42 59.96591 -4.82613 37072 ft 420 kts 327°
2026-05-06 13:43 60.01709 -4.88232 37068 ft 420 kts 327°
2026-05-06 13:43 60.06833 -4.93875 37056 ft 420 kts 327°
2026-05-06 13:44 60.11825 -4.99380 37057 ft 420 kts 327°
2026-05-06 13:44 60.17044 -5.05160 37060 ft 420 kts 327°
2026-05-06 13:45 60.22131 -5.10808 37065 ft 420 kts 327°
2026-05-06 13:45 60.29799 -5.19371 37065 ft 420 kts 327°
2026-05-06 13:46 60.34913 -5.25118 37062 ft 420 kts 327°
2026-05-06 13:46 60.40024 -5.30861 37062 ft 420 kts 327°